FW2347 Weather Reports


Display with metric or nautical units.
time (UTC)temp
F
wind
direction
speed
MPH
gust
MPH
rain 1hr
in
rain 24hr
in
rain mn
in
humidity
%
barometer
mb
20260901063102 66 360 0.0 0.0 0.00 0.00 0.00 26 1018.4
20260901061542 65 360 0.0 0.0 0.00 0.00 0.00 28 1018.3
20260901060029 64 360 0.0 0.0 0.00 0.00 0.00 30 1018.2
20260901054515 64 0.0 0.0 0.00 0.00 0.00 32 1018.2
20260901053009 64 5 0.0 0.0 0.00 0.00 0.00 36 1018.1
20260901051551 65 360 0.0 0.0 0.00 0.00 0.00 40 1017.9
20260901050020 65 5 0.0 0.0 0.00 0.00 0.00 43 1018.1
20260901044508 66 0.0 0.0 0.00 0.00 0.00 45 1017.9
20260901043119 66 0.0 0.0 0.00 0.00 0.00 48 1017.8
20260901041541 66 5 0.0 0.0 0.00 0.00 0.00 55 1017.8
20260901040017 68 360 0.0 0.0 0.00 0.00 0.00 58 1017.9
20260901034500 69 5 0.0 0.0 0.00 0.00 0.00 62 1018.1
20260901033054 70 360 0.0 0.0 0.00 0.00 0.00 63 1018.1
20260901031546 70 5 0.0 0.0 0.00 0.00 0.00 63 1018.3
20260901030033 70 360 0.0 0.0 0.00 0.00 0.00 63 1018.4
20260901024530 71 360 0.0 0.0 0.00 0.00 0.00 64 1018.4
20260901023021 71 360 0.0 0.0 0.00 0.00 0.00 65 1018.6
20260901021523 71 0.0 0.0 0.00 0.00 0.00 67 1018.8
20260901020020 71 5 0.0 0.0 0.00 0.00 0.00 70 1018.9
20260901014501 71 0.0 0.0 0.00 0.00 0.00 71 1018.9
20260901013109 71 0.0 0.0 0.00 0.00 0.00 72 1018.9
20260901011601 71 360 0.0 0.0 0.00 0.00 0.00 72 1019.0
20260901010045 71 5 0.0 0.0 0.00 0.00 0.00 72 1019.0
20260901004529 71 0.0 0.0 0.00 0.00 0.00 72 1019.0
20260901003009 71 0.0 0.0 0.00 0.00 0.00 72 1019.1
20260901001504 71 5 0.0 0.0 0.00 0.00 0.00 72 1019.2
20260901000059 71 0.0 0.0 0.00 0.00 0.00 72 1019.1
20260831234555 71 5 0.0 0.0 0.00 0.00 0.00 72 1019.1
20260831233040 71 5 0.0 0.0 0.00 0.00 0.00 72 1019.1
20260831231527 70 0.0 0.0 0.00 0.00 0.00 72 1019.1
20260831230023 70 360 0.0 0.0 0.00 0.00 0.00 72 1019.1
20260831224518 70 5 0.0 0.0 0.00 0.00 0.00 72 1019.1
20260831223011 70 5 0.0 0.0 0.00 0.00 0.00 73 1019.0
20260831221604 71 360 0.0 0.0 0.00 0.00 0.00 73 1019.1
20260831220111 72 360 0.0 0.0 0.00 0.00 0.00 72 1018.9
20260831214546 73 360 0.0 0.0 0.00 0.00 0.00 71 1018.9
20260831213046 73 5 0.0 0.0 0.00 0.00 0.00 71 1018.8
20260831211543 74 5 0.0 0.0 0.00 0.00 0.00 71 1018.8
20260831210023 74 360 0.0 0.0 0.00 0.00 0.00 70 1018.6
20260831204512 74 360 0.0 0.0 0.00 0.00 0.00 70 1018.5
20260831203052 74 5 0.0 0.0 0.00 0.00 0.00 70 1018.2
20260831201557 74 5 0.0 0.0 0.00 0.00 0.00 71 1018.1
20260831200043 74 360 0.0 0.0 0.00 0.00 0.00 72 1017.8
20260831194538 74 0.0 0.0 0.00 0.00 0.00 71 1017.6
20260831193009 75 5 0.0 0.0 0.00 0.00 0.00 71 1017.4
20260831191551 75 5 0.0 0.0 0.00 0.00 0.00 71 1017.2
20260831190040 76 5 0.0 0.0 0.00 0.00 0.00 71 1017.1
20260831184528 76 360 0.0 0.0 0.00 0.00 0.00 70 1016.7
20260831183012 77 5 0.0 0.0 0.00 0.00 0.00 69 1016.5
20260831181515 77 5 0.0 0.0 0.00 0.00 0.00 68 1016.5
20260831174612 79 360 0.0 0.0 0.00 0.00 0.00 65 1016.0
20260831173108 80 360 0.0 0.0 0.00 0.00 0.00 64 1015.9
20260831171551 81 5 0.0 0.0 0.00 0.00 0.00 63 1015.8
20260831170037 81 360 0.0 0.0 0.00 0.00 0.00 62 1015.9
20260831164535 82 360 0.0 0.0 0.00 0.00 0.00 60 1015.9
20260831163014 83 360 0.0 0.0 0.00 0.00 0.00 59 1015.8
20260831161501 84 360 0.0 0.0 0.00 0.00 0.00 57 1015.8
20260831160053 85 0.0 0.0 0.00 0.00 0.00 56 1015.7
20260831154534 86 5 0.0 0.0 0.00 0.00 0.00 54 1015.7
20260831153021 86 360 0.0 0.0 0.00 0.00 0.00 53 1015.7
20260831151512 87 360 0.0 0.0 0.00 0.00 0.00 50 1015.5
20260831150013 88 360 0.0 0.0 0.00 0.00 0.00 47 1015.5
20260831144607 88 5 0.0 0.0 0.00 0.00 0.00 43 1015.4
20260831143042 89 360 0.0 0.0 0.00 0.00 0.00 38 1015.4
20260831141508 89 360 0.0 0.0 0.00 0.00 0.00 38 1015.4
20260831140005 89 360 0.0 0.0 0.00 0.00 0.00 38 1015.7
20260831134601 89 360 0.0 0.0 0.00 0.00 0.00 40 1015.9
20260831133047 88 5 0.0 0.0 0.00 0.00 0.00 39 1016.2
20260831131531 87 5 0.0 0.0 0.00 0.00 0.00 39 1016.2
20260831130022 87 360 0.0 0.0 0.00 0.00 0.00 40 1016.5
20260831124509 86 0.0 0.0 0.00 0.00 0.00 39 1016.6
20260831123104 87 360 0.0 0.0 0.00 0.00 0.00 38 1016.7
20260831121543 86 0.0 0.0 0.00 0.00 0.00 38 1016.7
20260831120027 85 0.0 0.0 0.00 0.00 0.00 39 1017.0
20260831114530 84 360 0.0 0.0 0.00 0.00 0.00 41 1017.2
20260831113016 84 360 0.0 0.0 0.00 0.00 0.00 43 1017.3
20260831111503 83 360 0.0 0.0 0.00 0.00 0.00 47 1017.4
20260831110124 83 360 0.0 0.0 0.00 0.00 0.00 49 1017.7
20260831104532 81 360 0.0 0.0 0.00 0.00 0.00 52 1017.6
20260831103015 81 360 0.0 0.0 0.00 0.00 0.00 54 1017.8
20260831101547 80 0.0 0.0 0.00 0.00 0.00 53 1017.8
20260831100030 79 5 0.0 0.0 0.00 0.00 0.00 52 1017.9
20260831094517 79 0.0 0.0 0.00 0.00 0.00 51 1018.0
20260831093006 79 5 0.0 0.0 0.00 0.00 0.00 50 1017.9
20260831091552 78 5 0.0 0.0 0.00 0.00 0.00 50 1018.0
20260831090021 77 360 0.0 0.0 0.00 0.00 0.00 49 1018.1
20260831084502 76 5 0.0 0.0 0.00 0.00 0.00 53 1017.8
20260831083100 75 360 0.0 0.0 0.00 0.00 0.00 56 1017.8
20260831081623 74 5 0.0 0.0 0.00 0.00 0.00 58 1017.6
20260831080034 71 0.0 0.0 0.00 0.00 0.00 62 1017.5
20260831074535 69 5 0.0 0.0 0.00 0.00 0.00 65 1017.4
20260831073006 68 5 0.0 0.0 0.00 0.00 0.00 67 1017.2
20260831071553 67 5 0.0 0.0 0.00 0.00 0.00 69 1017.2
20260831070038 65 0.0 0.0 0.00 0.00 0.00 72 1017.2
20260831064536 62 0.0 0.0 0.00 0.00 0.00 73 1017.2